[[{"header":{"parameterUnit":"m.s-1","parameterCategory":1,"la1":30.2991,"la2":30.254,"lo1":-89.0895,"lo2":-89.0444,"dy":0.0017,"dx":0.0017,"nx":28,"ny":28,"refTime":"2024-10-09T03:00:00:Z","depth":0,"parameterNumber":2,"parameterNumberName":"U-component_of_WINDS"},"data":[0,0,0,0,0,0,0,0,0,0,0,0,0,0,0,0,0,0,0,0,0,0,0,0,0,0,0,0,0,0,0,0,0,0,0,0,0,0,0,0,0,0,0,0,0,0,0,0,0,0,0,0,0,0,0,0,0,0,-0.3752,-0.3752,0,-0.381,-0.3811,-0.3812,-0.3808,-0.3807,-0.3806,-0.3806,-0.3866,-0.3868,-0.387,0,0,0,0,0,0,0,0,0,0,0,0,0,-0.3637,-0.3639,-0.3752,-0.3753,-0.3753,-0.381,-0.3811,-0.3812,-0.3808,-0.3807,-0.3806,-0.3805,-0.3865,-0.3868,-0.3871,0,0,0,0,0,0,0,0,0,0,0,0,0,-0.369,-0.364,-0.3752,-0.3758,-0.376,-0.381,-0.3811,-0.3812,-0.3808,-0.3807,-0.3806,-0.3805,-0.3864,-0.3867,-0.3871,-0.3919,0,0,-0.3882,-0.3884,0,0,0,0,0,0,0,0,-0.3687,-0.3694,-0.3757,-0.3758,-0.3759,-0.3801,-0.3792,-0.3848,-0.3809,-0.379,-0.3806,-0.3804,-0.3845,-0.385,-0.3864,-0.3922,-0.3924,-0.3882,-0.3884,-0.3886,-0.3887,0,0,0,0,0,0,0,-0.3683,-0.3692,-0.3775,-0.3758,-0.3759,-0.3758,-0.3764,-0.3803,-0.3824,-0.3791,-0.3791,-0.3798,-0.3846,-0.386,-0.3865,-0.3925,-0.3882,-0.3885,-0.3888,-0.3889,-0.4024,-0.4026,0,0,0,0,0,0,-0.3678,-0.3689,-0.3773,-0.3777,-0.3719,-0.3761,-0.3768,-0.3789,-0.3823,-0.3828,-0.3799,-0.3798,-0.3855,-0.3861,-0.3867,-0.3926,-0.3886,-0.3889,-0.3891,-0.4023,-0.4025,-0.4026,0,0,0,0,0,0,-0.3676,-0.3686,-0.3771,-0.3733,-0.3743,-0.3765,-0.3788,-0.379,-0.3805,-0.3829,-0.3833,-0.3811,-0.3854,-0.3862,-0.3906,-0.3928,-0.3891,-0.3894,-0.4021,-0.4024,-0.4026,-0.4043,0,0,0,0,0,0,-0.3673,-0.3685,-0.3704,-0.3733,-0.3746,-0.3809,-0.3789,-0.3793,-0.3812,-0.381,-0.3841,-0.3845,-0.3854,-0.3901,-0.3909,-0.3932,-0.3897,-0.4019,-0.4022,-0.4025,-0.4041,-0.4046,-0.405,0,0,0,0,0,-0.3668,-0.3706,-0.3705,-0.3715,-0.3769,-0.381,-0.3817,-0.3826,-0.3813,-0.3832,-0.3847,-0.3844,-0.3924,-0.3905,-0.3915,-0.3939,-0.4018,-0.4022,-0.4025,-0.4039,-0.4045,-0.405,0,0,0,0,0,0,-0.3679,-0.371,-0.3709,-0.3757,-0.3781,-0.3809,-0.3833,-0.3832,-0.386,-0.3858,-0.3868,-0.3875,-0.3919,-0.3933,-0.3912,-0.3987,-0.3969,-0.3975,-0.3977,-0.3982,-0.3987,-0.3983,-0.39,0,0,0,0,0,-0.3687,-0.3717,-0.3743,-0.3783,-0.3795,-0.3812,-0.383,-0.3835,-0.386,-0.387,-0.3889,-0.3913,-0.3943,-0.3963,-0.3993,-0.4042,-0.4049,-0.4064,-0.4068,-0.4072,-0.4077,-0.4104,-0.4111,-0.4037,-0.4037,-0.4037,0,0,-0.3704,-0.3725,-0.3743,-0.3786,-0.3805,-0.3836,-0.3821,-0.3855,-0.3878,-0.3875,-0.3918,-0.3932,-0.396,-0.4007,-0.4028,-0.402,-0.4098,-0.4076,-0.4079,-0.4082,-0.4108,-0.4115,-0.4121,-0.4039,-0.4039,-0.4038,0,0,-0.3751,-0.3769,-0.3805,-0.3824,-0.3853,-0.3864,-0.3872,-0.3901,-0.391,-0.3953,-0.3951,-0.3979,-0.4031,-0.4051,-0.4068,-0.4121,-0.4119,-0.413,-0.4155,-0.4181,-0.4187,-0.4192,-0.4212,-0.4219,-0.4135,-0.4135,-0.4135,0,-0.3769,-0.3816,-0.3824,-0.3858,-0.3877,-0.3875,-0.3912,-0.393,-0.3966,-0.3979,-0.3969,-0.4035,-0.4053,-0.4105,-0.4118,-0.4131,-0.4141,-0.4128,-0.4186,-0.4191,-0.4196,-0.4215,-0.4222,-0.4136,-0.4136,-0.4136,-0.4136,0,-0.3836,-0.3869,-0.3894,-0.393,-0.3951,-0.3987,-0.4,-0.402,-0.4023,-0.4035,-0.4078,-0.41,-0.4133,-0.4146,-0.4149,-0.4197,-0.4192,-0.4183,-0.4166,-0.4204,-0.4222,-0.4229,-0.4138,-0.4137,-0.4137,-0.4137,0,0,-0.3894,-0.3932,-0.3942,-0.3958,-0.3988,-0.4014,-0.4048,-0.4081,-0.4099,-0.4124,-0.4153,-0.4197,-0.4189,-0.4209,-0.4213,-0.4237,-0.4278,-0.4226,-0.4226,-0.4235,-0.4334,-0.4341,-0.4349,-0.4276,-0.4277,-0.4278,-0.4332,0,-0.3945,-0.4007,-0.4014,-0.4069,-0.41,-0.4098,-0.4128,-0.415,-0.4161,-0.4189,-0.4201,-0.4232,-0.4219,-0.4231,-0.4254,-0.4268,-0.4298,-0.4264,-0.4304,-0.4306,-0.4299,-0.4358,-0.4366,-0.4415,-0.4339,-0.434,-0.4341,0,-0.4013,-0.404,-0.4098,-0.4125,-0.4138,-0.4165,-0.4195,-0.4221,-0.4246,-0.4252,-0.4273,-0.4275,-0.431,-0.429,-0.4339,-0.4316,-0.4332,-0.4342,-0.4344,-0.4349,-0.4327,-0.4366,-0.4431,-0.4439,-0.4352,-0.4351,-0.435,0,-0.4051,-0.4101,-0.4142,-0.4156,-0.4187,-0.4206,-0.422,-0.4244,-0.4263,-0.4289,-0.4301,-0.4331,-0.4348,-0.4371,-0.4381,-0.4365,-0.443,-0.441,-0.4437,-0.4436,-0.4452,-0.4451,-0.4521,-0.446,-0.446,-0.446,-0.446,0,-0.4108,-0.4144,-0.416,-0.4185,-0.4225,-0.4233,-0.4272,-0.4285,-0.4305,-0.4333,-0.4333,-0.4359,-0.4369,-0.4397,-0.4404,-0.4444,-0.4451,-0.4458,-0.446,-0.4459,-0.4458,-0.4471,-0.4469,-0.4462,-0.4461,-0.4461,-0.4461,0,-0.4157,-0.4169,-0.4214,-0.424,-0.4247,-0.4275,-0.4297,-0.4322,-0.4332,-0.4367,-0.4376,-0.4393,-0.4425,-0.4436,-0.4476,-0.4481,-0.4527,-0.4526,-0.4519,-0.452,-0.4546,-0.4544,-0.4629,-0.464,-0.457,-0.4571,-0.4571,0,-0.4194,-0.4222,-0.425,-0.4269,-0.4283,-0.4313,-0.4333,-0.4341,-0.4361,-0.439,-0.4411,-0.4443,-0.447,-0.4522,-0.4537,-0.4567,-0.4567,-0.4594,-0.4571,-0.4569,-0.4568,-0.4567,-0.457,-0.4599,-0.46,-0.46,-0.4601,0,-0.4258,-0.4262,-0.429,-0.432,-0.4343,-0.4367,-0.439,-0.4405,-0.4417,-0.4439,-0.4473,-0.4493,-0.4533,-0.4565,-0.4595,-0.4609,-0.4607,-0.4607,-0.4615,-0.4616,-0.4611,-0.4615,-0.4532,-0.4606,-0.4605,-0.4605,-0.4605,-0.4605,-0.4303,-0.4327,-0.4351,-0.4382,-0.44,-0.4422,-0.4446,-0.4459,-0.4487,-0.452,-0.4523,-0.4559,-0.4582,-0.4622,-0.4638,-0.4666,-0.4658,-0.4669,-0.4672,-0.4675,-0.4678,-0.4605,-0.4671,-0.4671,-0.4671,-0.467,-0.467,0,-0.4368,-0.4383,-0.4411,-0.4444,-0.4468,-0.4463,-0.4488,-0.4509,-0.454,-0.4562,-0.4587,-0.4625,-0.4656,-0.4673,-0.4704,-0.4723,-0.4723,-0.4731,-0.473,-0.4733,-0.4682,-0.4673,-0.473,-0.473,-0.473,-0.473,-0.473,-0.473,-0.4405,-0.4446,-0.4453,-0.4503,-0.4517,-0.4552,-0.4567,-0.4587,-0.4604,-0.4646,-0.4672,-0.4683,-0.4702,-0.4734,-0.4762,-0.4766,-0.4778,-0.4787,-0.4791,-0.4743,-0.4737,-0.4731,-0.4723,-0.4789,-0.4789,-0.484,-0.484,-0.484]},{"header":{"parameterUnit":"m.s-1","parameterCategory":1,"la1":30.2991,"la2":30.254,"lo1":-89.0895,"lo2":-89.0444,"dy":0.0017,"dx":0.0017,"nx":28,"ny":28,"refTime":"2024-10-09T03:00:00:Z","depth":0,"parameterNumber":3,"parameterNumberName":"V-component_of_WINDS"},"data":[0,0,0,0,0,0,0,0,0,0,0,0,0,0,0,0,0,0,0,0,0,0,0,0,0,0,0,0,0,0,0,0,0,0,0,0,0,0,0,0,0,0,0,0,0,0,0,0,0,0,0,0,0,0,0,0,0,0,-5.2158,-5.2158,0,-5.2241,-5.2242,-5.2243,-5.2161,-5.2158,-5.2155,-5.2152,-5.2231,-5.2236,-5.2241,0,0,0,0,0,0,0,0,0,0,0,0,0,-5.1922,-5.1927,-5.2157,-5.2159,-5.216,-5.2241,-5.2242,-5.2243,-5.2162,-5.2158,-5.2154,-5.215,-5.223,-5.2236,-5.2242,0,0,0,0,0,0,0,0,0,0,0,0,0,-5.2017,-5.1929,-5.2157,-5.2129,-5.2127,-5.2241,-5.2242,-5.2243,-5.2163,-5.2158,-5.2153,-5.2148,-5.2228,-5.2235,-5.2243,-5.2386,0,0,-5.2266,-5.2269,0,0,0,0,0,0,0,0,-5.2012,-5.2026,-5.2132,-5.2131,-5.2129,-5.2186,-5.2188,-5.2291,-5.2164,-5.2149,-5.2152,-5.2146,-5.222,-5.2228,-5.2254,-5.239,-5.2394,-5.2267,-5.2271,-5.2275,-5.2277,0,0,0,0,0,0,0,-5.2005,-5.2022,-5.219,-5.2134,-5.2132,-5.211,-5.2118,-5.2207,-5.221,-5.215,-5.2144,-5.2155,-5.2218,-5.2247,-5.2255,-5.2395,-5.2267,-5.2273,-5.2278,-5.2281,-5.2653,-5.2658,0,0,0,0,0,0,-5.2003,-5.2017,-5.2188,-5.2193,-5.2058,-5.2118,-5.2127,-5.2172,-5.2209,-5.221,-5.2159,-5.2151,-5.2236,-5.2246,-5.2258,-5.2428,-5.2275,-5.2282,-5.2286,-5.2648,-5.2654,-5.266,0,0,0,0,0,0,-5.1998,-5.2019,-5.2184,-5.2103,-5.2123,-5.2128,-5.2179,-5.2177,-5.2205,-5.2216,-5.2216,-5.2189,-5.2232,-5.2247,-5.2355,-5.243,-5.2285,-5.2292,-5.2642,-5.265,-5.2657,-5.2772,0,0,0,0,0,0,-5.1991,-5.2017,-5.2073,-5.2105,-5.2127,-5.2283,-5.2183,-5.2182,-5.2219,-5.2209,-5.2243,-5.2244,-5.223,-5.2344,-5.2363,-5.2438,-5.2298,-5.2635,-5.2645,-5.2655,-5.2761,-5.2782,-5.2801,0,0,0,0,0,-5.1983,-5.2101,-5.2077,-5.2098,-5.2198,-5.2287,-5.23,-5.2282,-5.2226,-5.2281,-5.2288,-5.2243,-5.2419,-5.2356,-5.2377,-5.2455,-5.263,-5.2642,-5.2654,-5.2752,-5.2778,-5.28,0,0,0,0,0,0,-5.2075,-5.2104,-5.2078,-5.2209,-5.2247,-5.2273,-5.2343,-5.231,-5.2362,-5.2351,-5.2325,-5.2333,-5.2449,-5.2462,-5.2392,-5.2596,-5.2515,-5.2532,-5.2583,-5.2608,-5.2627,-5.2621,-5.2305,0,0,0,0,0,-5.2111,-5.2183,-5.2204,-5.2318,-5.2338,-5.2338,-5.2376,-5.236,-5.2396,-5.2411,-5.2426,-5.2462,-5.2525,-5.2567,-5.2626,-5.2763,-5.2769,-5.2827,-5.2846,-5.2862,-5.2877,-5.295,-5.2976,-5.2699,-5.2699,-5.2699,0,0,-5.2185,-5.221,-5.2257,-5.2337,-5.2364,-5.2438,-5.2351,-5.2433,-5.2487,-5.2422,-5.2527,-5.2539,-5.2577,-5.2701,-5.2756,-5.2716,-5.2955,-5.2878,-5.289,-5.2896,-5.2965,-5.2992,-5.3015,-5.2707,-5.2706,-5.2704,0,0,-5.2358,-5.2385,-5.2483,-5.2512,-5.2555,-5.2554,-5.2578,-5.261,-5.2616,-5.2721,-5.2675,-5.2737,-5.2847,-5.2876,-5.2905,-5.3091,-5.3052,-5.3111,-5.3214,-5.3286,-5.3308,-5.3327,-5.3393,-5.3417,-5.3125,-5.3125,-5.3126,0,-5.2444,-5.2556,-5.2537,-5.2623,-5.2659,-5.2607,-5.2705,-5.2734,-5.2793,-5.2819,-5.2773,-5.291,-5.2932,-5.3062,-5.3108,-5.3133,-5.3158,-5.3107,-5.3306,-5.3325,-5.3343,-5.3406,-5.3431,-5.3132,-5.3132,-5.3131,-5.313,0,-5.2659,-5.2737,-5.2811,-5.2872,-5.2917,-5.3009,-5.3002,-5.3049,-5.3029,-5.3033,-5.314,-5.3164,-5.3228,-5.3257,-5.3237,-5.3385,-5.3359,-5.3311,-5.3229,-5.3377,-5.3435,-5.3459,-5.3142,-5.314,-5.3138,-5.3136,0,0,-5.2892,-5.2943,-5.297,-5.2997,-5.3041,-5.31,-5.3189,-5.3253,-5.3294,-5.3336,-5.3409,-5.3504,-5.346,-5.3493,-5.3476,-5.354,-5.3685,-5.3483,-5.3484,-5.352,-5.3849,-5.3885,-5.3913,-5.366,-5.3664,-5.3668,-5.3846,0,-5.3066,-5.3223,-5.3209,-5.3357,-5.3428,-5.338,-5.3457,-5.3492,-5.3498,-5.3557,-5.3562,-5.363,-5.3567,-5.3587,-5.3648,-5.3655,-5.3751,-5.3642,-5.3726,-5.3729,-5.3718,-5.3944,-5.3982,-5.4149,-5.3869,-5.3872,-5.3875,0,-5.329,-5.3344,-5.35,-5.3534,-5.3563,-5.3633,-5.3691,-5.3749,-5.3787,-5.3786,-5.3825,-5.3797,-5.3885,-5.3802,-5.3922,-5.3849,-5.3882,-5.3891,-5.3897,-5.3904,-5.3811,-5.3957,-5.4202,-5.4227,-5.3911,-5.3908,-5.3906,0,-5.3445,-5.3555,-5.3662,-5.3687,-5.373,-5.378,-5.3799,-5.3833,-5.3872,-5.3922,-5.3947,-5.4006,-5.4038,-5.4083,-5.4072,-5.4013,-5.4195,-5.4111,-5.4196,-5.4197,-5.4236,-5.4234,-5.449,-5.4259,-5.4258,-5.4258,-5.4257,0,-5.3641,-5.3738,-5.3733,-5.3799,-5.3906,-5.3888,-5.3994,-5.4007,-5.4038,-5.4104,-5.4065,-5.4128,-5.4109,-5.4171,-5.4162,-5.4263,-5.4278,-5.4279,-5.4275,-5.4283,-5.4283,-5.4304,-5.4292,-5.4264,-5.4263,-5.4262,-5.426,0,-5.3831,-5.3831,-5.3945,-5.3977,-5.3987,-5.4065,-5.4091,-5.4152,-5.4155,-5.424,-5.4259,-5.4263,-5.4334,-5.4327,-5.4406,-5.44,-5.4525,-5.4508,-5.4513,-5.4509,-5.4595,-5.4587,-5.4874,-5.4911,-5.4655,-5.4658,-5.466,0,-5.3956,-5.403,-5.407,-5.4113,-5.4137,-5.4207,-5.4248,-5.4233,-5.4277,-5.4326,-5.4382,-5.445,-5.4503,-5.4618,-5.4627,-5.4687,-5.467,-5.4767,-5.4679,-5.4684,-5.4672,-5.4668,-5.4675,-5.4784,-5.4787,-5.4789,-5.4791,0,-5.4178,-5.4175,-5.4237,-5.4299,-5.435,-5.4397,-5.4441,-5.4478,-5.4467,-5.4518,-5.4592,-5.4633,-5.4715,-5.4782,-5.484,-5.4857,-5.4823,-5.4819,-5.4842,-5.485,-5.485,-5.4851,-5.456,-5.4812,-5.481,-5.4809,-5.4807,-5.4807,-5.4339,-5.4403,-5.4442,-5.4512,-5.4544,-5.4586,-5.4646,-5.4657,-5.4719,-5.4786,-5.4773,-5.4855,-5.489,-5.4964,-5.4988,-5.5051,-5.5016,-5.5049,-5.5057,-5.5066,-5.5076,-5.4841,-5.5061,-5.5061,-5.506,-5.5059,-5.5059,0,-5.4559,-5.4583,-5.4647,-5.4711,-5.4766,-5.4731,-5.4777,-5.4825,-5.4899,-5.4936,-5.499,-5.5074,-5.514,-5.5154,-5.5217,-5.5264,-5.525,-5.5281,-5.5277,-5.5282,-5.5104,-5.5078,-5.5292,-5.5292,-5.5292,-5.5292,-5.5292,-5.5291,-5.468,-5.4787,-5.4789,-5.491,-5.4932,-5.5014,-5.5044,-5.5082,-5.5111,-5.5208,-5.5263,-5.5273,-5.5301,-5.5366,-5.5424,-5.5426,-5.5451,-5.5488,-5.5485,-5.5318,-5.5294,-5.5272,-5.5248,-5.5494,-5.5494,-5.5657,-5.5659,-5.566]}]]